SCP
0 0 0 0 0 0 0 0 0 0 0 0 0 0 0 0 0 0 0 0 0 0 0 0 0 0 0 0 0 0 0 0 0 0 0 0 0 0 0 0 0 0 0 0
0 0 0 0 0 0 0 0 0 0 0 0 0 0 0 0 0 0 0 0 0 0 0 0 0 0 0 0 0 0 0 0 0 0 0 0 0 0 0 0 0 0 0 0
0 0 0 0 0 0 0 0 0 0 0 0 0 0 0 0 0 0 0 0 0 0 0 0 0 0 0 0 0 0 0 0 0 0 0 0 0 0 0 0 0 0 0 0
0 0 0 0 0 0 0 0 0 0 0 0 0 0 0 0 0 0 0 0 0 0 0 0 0 0 0 0 0 0 0 0 0 0 0 0 0 0 0 0 0 0 0 0
0 0 0 0 0 0 0 0 0 0 0 0 0 0 0 0 0 0 0 0 0 0 0 0 0 0 0 0 0 0 0 0 0 0 0 0 0 0 0 0 0 0 0 0
0 0 0 0 0 0 0 0 0 0 0 0 0 0 0 0 0 0 0 0 0 0 0 0 0 0 0 0 0 0 0 0 0 0 0 0 0 0 0 0 0 0 0 0
0 0 0 0 0 0 0 0 0 0 0 0 0 0 0 0 0 0 0 0 0 0 0 0 0 0 0 0 0 0 0 0 0 0 0 0 0 0 0 0 0 0 0 0
0 0 0 0 0 0 0 0 0 0 0 0 0 0 0 0 0 0 0 0 0 0 0 0 0 0 0 0 0 0 0 0 0 0 0 0 0 0 0 0 0 0 0 0
0 0 0 0 0 0 0 0 0 0 0 0 0 0 0 0 0 0 0 0 0 0 0 0 0 0 0 0 0 0 0 0 0 0 0 0 0 0 0 0 0 0 0 0
0 0 0 0 0 0 0 0 0 0 0 0 0 0 0 0 0 0 0 0 0 0 0 0 0 0 0 0 0 0 0 0 0 0 0 0 0 0 0 0 0 0 0 0
0 0 0 0 0 0 0 0 0 0 0 0 0 0 0 0 0 0 0 0 0 0 0 0 0 0 0 0 0 0 0 0 0 0 0 0 0 0 0 0 0 0 0 0
0 0 0 0 0 0 0 0 0 0 0 0 0 0 0 0 0 0 0 0 0 0 0 0 0 0 0 0 0 0 0 0 0 0 0 0 0 0 0 0 0 0 0 0
0 0 0 0 0 0 0 0 0 0 0 0 0 0 0 0 0 0 0 0 0 0 0 0 0 0 0 0 0 0 0 0 0 0 0 0 0 0 0 0 0 0 0 0
0 0 0 0 0 0 0 0 0 0 0 0 0 0 0 0 0 0 0 0 0 0 0 0 0 0 0 0 0 0 0 0 0 0 0 0 0 0 0 0 0 0 0 0
0 0 0 0 0 0 0 0 0 0 0 0 0 0 0 0 0 0 0 0 0 0 0 0 0 0 0 0 0 0 0 0 0 0 0 0 0 0 0 0 0 0 0 0
0 0 0 0 0 0 0 0 0 0 0 0 0 0 0 0 0 0 0 0 0 0 0 0 0 0 0 0 0 0 0 0 0 0 0 0 0 0 0 0 0 0 0 0
0 0 0 0 0 0 0 0 0 0 0 0 0 0 0 0 0 0 0 0 0 0 0 0 0 0 0 0 0 0 0 0 0 0 0 0 0 0 0 0 0 0 0 0
0 0 0 0 0 0 0 0 0 0 0 0 0 0 0 0 0 0 0 0 0 0 0 0 0 0 0 0 0 0 0 0 0 0 0 0 0 0 0 0 0 0 0 0
0 0 0 0 0 0 0 0 0 0 0 0 0 0 0 0 0 0 0 0 0 0 0 0 0 0 0 0 0 0 0 0 0 0 0 0 0 0 0 0 0 0 0 0
0 0 0 0 0 0 0 0 0 0 0 0 0 0 0 0 0 0 0 0 0 0 0 0 0 0 0 0 0 0 0 0 0 0 0 0 0 0 0 0 0 0 0 0
0 0 0 0 0 0 0 0 0 0 0 0 0 0 0 0 0 0 0 0 0 0 0 0 0 0 0 0 0 0 0 0 0 0 0 0 0 0 0 0 0 0 0 0
0 0 0 0 0 0 0 0 0 0 0 0 0 0 0 0 0 0 0 0 0 0 0 0 0 0 0 0 0 0 0 0 0 0 0 0 0 0 0 0 0 0 0 0
0 0 0 0 0 0 0 0 0 0 0 0 0 0 0 0 0 0 0 0 0 0 0 0 0 0 0 0 0 0 0 0 0 0 0 0 0 0 0 0 0 0 0 0
0 0 0 0 0 0 0 0 0 0 0 0 0 0 0 0 0 0 0 0 0 0 0 0 0 0 0 0 0 0 0 0 0 0 0 0 0 0 0 0 0 0 0 0
0 0 0 0 0 0 0 0 0 0 0 0 0 0 0 0 0 0 0 0 0 0 0 0 0 0 0 0 0 0 0 0 0 0 0 0 0 0 0 0 0 0 0 0
0 0 0 0 0 0 0 0 0 0 0 0 0 0 0 0 0 0 0 0 0 0 0 0 0 0 0 0 0 0 0 0 0 0 0 0 0 0 0 0 0 0 0 0
Wind_Speed
6 8 5 2 1 3 5 4 2 1 1 2 2 6 8 4 3 5 5 4 3 3 2 0 1 2 3 4 5 5 6 6 5 4 4 3 4 4 4 4 6 7 7 7
8 6 2 1 4 6 5 4 2 2 3 2 3 7 7 4 4 5 5 5 5 3 1 1 1 2 3 3 4 4 5 5 5 4 3 2 3 2 3 4 5 7 7 7
7 1 2 4 5 6 5 3 1 1 4 3 4 7 4 2 2 3 4 4 4 5 4 2 1 1 2 2 3 4 4 5 5 4 3 3 2 2 3 5 5 6 7 7
5 3 4 5 4 3 2 1 2 2 3 3 3 5 7 3 4 4 5 4 5 4 3 3 2 2 2 2 2 2 3 4 4 4 3 3 3 3 4 4 4 6 6 6
3 2 4 4 2 2 1 1 2 2 2 2 1 1 9 2 4 6 5 6 6 5 5 4 4 3 3 2 2 2 2 3 4 4 3 3 2 2 3 4 5 5 5 6
2 2 2 1 1 2 2 4 4 4 3 2 2 3 9 5 6 5 4 5 6 5 5 4 3 3 2 2 1 1 2 3 3 3 3 2 2 3 4 5 5 5 4 4
5 3 2 1 3 3 4 4 4 5 4 5 1 3 11 7 6 6 6 6 6 5 5 5 4 4 3 3 2 2 1 2 3 2 2 2 2 2 3 4 4 4 4 4
2 3 2 1 1 2 1 3 4 2 3 5 2 7 10 5 4 4 5 4 4 5 5 6 5 5 4 4 3 2 2 2 2 2 2 2 2 2 2 3 3 3 3 4
2 2 2 1 0 3 2 2 3 4 0 4 6 8 11 3 3 3 3 3 5 5 6 6 5 5 5 5 4 4 3 3 2 2 2 2 2 2 2 3 3 3 3 4
2 0 2 1 2 2 2 4 3 3 1 4 7 6 6 5 4 3 4 5 6 5 5 6 5 6 5 5 4 3 3 3 3 2 2 1 2 2 2 2 3 4 4 4
2 1 3 1 3 4 3 2 3 2 2 3 5 9 7 7 5 5 6 6 6 6 7 6 6 5 5 4 4 3 4 3 3 2 2 2 2 2 2 2 3 4 4 4
2 3 2 5 3 2 4 5 6 3 3 4 3 12 5 5 5 5 6 6 6 6 6 6 5 4 4 5 4 4 4 4 4 3 2 2 2 2 2 3 3 3 4 4
3 2 2 4 3 0 2 3 4 3 3 4 5 12 3 2 3 4 5 7 6 6 6 5 5 5 5 5 5 5 5 5 3 3 2 2 2 2 2 3 3 3 3 4
4 3 5 6 4 3 4 4 5 6 5 6 11 13 10 8 7 8 8 8 7 6 6 6 6 6 6 5 5 5 5 4 3 3 3 3 3 3 3 3 3 3 3 3
3 2 4 7 7 6 8 10 9 12 10 10 10 10 16 10 9 9 8 8 7 7 7 7 7 6 5 5 5 5 5 4 4 3 3 4 3 3 2 2 2 2 2 3
2 2 2 5 5 6 11 14 14 14 13 15 15 19 15 9 5 7 8 8 9 9 8 7 7 6 6 6 6 5 5 5 4 4 4 3 3 2 2 2 2 2 2 2
1 1 2 5 5 7 11 10 12 8 8 9 15 15 7 7 8 8 8 8 9 9 8 7 7 7 7 6 6 6 6 4 4 4 4 3 3 3 3 2 2 2 2 2
5 3 1 4 6 7 8 1 6 7 8 11 10 10 8 9 8 8 8 9 9 8 7 7 6 6 6 5 5 4 4 4 4 4 4 4 3 3 2 2 2 2 2 2
5 5 2 2 4 12 10 3 4 5 8 8 11 11 9 6 5 6 5 6 7 7 7 6 6 5 4 4 4 4 4 4 4 5 5 4 4 3 3 3 3 2 2 2
3 3 3 2 4 9 7 1 2 2 7 4 6 6 4 1 3 6 4 4 6 6 5 4 4 3 4 4 4 5 5 5 6 6 5 4 4 4 4 3 3 2 2 2
4 4 6 6 7 13 9 2 2 2 6 2 3 4 3 5 7 7 6 6 6 5 5 4 3 4 4 4 5 5 5 7 7 4 4 4 4 4 4 3 2 2 2 2
8 7 8 7 8 13 5 6 7 8 3 3 4 5 6 7 8 8 7 7 6 5 5 4 4 5 4 4 5 6 7 6 4 4 4 4 3 3 2 2 2 2 2 2
9 10 7 11 13 7 4 8 6 3 5 6 6 7 7 8 9 9 8 7 7 6 6 4 5 5 4 5 6 8 6 4 4 4 4 4 3 3 3 3 3 2 2 2
6 4 5 8 12 10 10 9 9 8 9 9 8 8 7 9 10 10 8 7 7 6 6 4 4 5 6 6 7 7 5 5 5 5 4 4 3 3 3 2 3 2 2 2
7 4 5 9 10 9 7 6 7 7 7 8 8 8 9 9 10 10 9 8 7 6 5 5 6 7 8 6 6 6 5 5 5 5 4 4 4 3 3 3 3 3 4 4
8 9 9 11 8 6 8 7 7 8 9 10 10 10 9 8 10 9 8 7 6 6 5 5 6 7 7 6 6 5 5 6 6 5 4 4 3 3 3 2 2 5 5 7
Wind_Direction
26 58 52 31 54 119 121 111 99 340 0 13 267 275 280 275 243 240 236 224 225 236 249 193 48 25 15 10 7 2 360 356 358 356 353 350 353 350 358 358 357 355 351 349
46 41 346 63 78 84 90 94 61 1 12 19 309 284 275 257 233 226 220 216 216 225 246 257 5 21 8 360 357 359 360 355 358 354 339 323 319 330 345 347 353 355 353 351
88 348 4 74 66 77 64 97 107 3 349 25 344 311 294 277 245 245 229 215 210 207 216 236 262 302 334 340 343 350 351 353 353 350 351 347 350 337 348 352 352 351 353 354
64 15 54 66 53 77 72 51 114 72 38 335 26 309 288 274 281 251 236 221 220 216 213 228 244 268 280 293 316 332 342 349 351 355 7 12 9 350 332 331 334 340 351 354
48 30 53 60 32 77 129 76 84 77 87 346 350 228 282 296 266 253 235 223 223 218 215 227 234 240 256 270 291 315 338 347 353 2 5 9 0 333 322 333 339 342 347 352
45 23 56 79 44 71 97 66 61 50 60 321 247 187 278 242 226 248 238 224 222 219 221 231 238 239 252 261 283 309 338 340 347 356 1 2 349 343 345 344 343 342 343 347
15 13 14 56 65 32 60 70 30 3 4 266 247 222 253 248 233 231 242 242 228 216 217 228 236 240 245 249 260 281 304 315 328 340 348 348 339 338 339 333 334 338 340 341
58 329 325 11 125 133 93 117 141 204 258 291 294 243 256 254 258 249 244 240 228 220 221 227 231 233 239 240 240 245 257 272 295 316 326 336 337 331 323 323 322 326 325 324
121 278 322 334 120 133 124 129 154 132 206 286 279 282 296 262 262 251 248 244 241 236 233 235 237 235 236 235 231 228 238 252 268 284 302 320 326 325 320 318 318 315 316 321
140 269 312 328 69 31 128 145 107 124 194 290 294 274 259 271 255 258 251 250 252 248 244 243 239 236 236 233 232 228 227 233 244 254 268 292 301 306 309 319 326 323 320 322
110 136 312 341 205 194 145 149 134 128 163 194 289 277 228 224 234 240 249 248 248 246 245 243 243 239 237 232 224 224 226 229 238 244 253 276 291 300 309 317 316 316 318 324
125 120 271 259 249 193 186 187 157 168 222 201 238 271 261 232 248 245 257 264 258 249 247 245 244 242 235 231 226 225 226 226 231 229 235 255 273 292 305 307 309 314 314 316
140 115 344 344 346 339 235 209 184 160 153 187 213 262 293 279 277 259 260 269 267 259 255 250 244 239 236 232 229 226 225 226 225 212 218 247 266 278 284 291 302 311 313 318
123 160 190 216 234 204 239 224 187 171 198 225 231 256 280 284 287 286 277 270 266 260 254 249 247 243 239 233 226 224 227 220 212 205 212 234 250 257 268 282 296 306 314 323
116 230 245 255 258 247 243 239 213 210 212 225 246 249 266 265 262 266 267 269 268 264 256 247 243 243 239 234 228 223 224 213 202 202 216 234 244 250 260 277 293 308 318 323
105 240 293 281 267 260 263 249 231 233 232 241 261 272 270 271 259 262 265 262 262 262 256 250 247 244 238 230 226 222 221 212 195 204 222 231 234 243 254 264 276 294 309 316
174 171 308 282 308 316 273 241 206 207 211 207 235 249 274 283 268 257 259 260 259 260 257 251 245 241 237 228 216 216 216 201 195 209 218 221 223 236 250 258 271 285 297 313
162 156 229 296 343 268 249 212 185 209 237 218 235 256 265 263 272 267 255 251 258 256 253 251 246 243 237 223 212 206 193 190 199 210 216 218 217 232 244 244 258 270 276 286
169 160 204 269 292 282 292 260 185 201 272 226 227 252 265 284 310 293 260 234 242 248 249 247 241 239 231 220 201 185 192 193 200 213 218 217 212 222 230 242 255 261 266 276
127 145 179 202 254 260 260 223 167 124 285 255 205 239 262 341 316 283 282 278 272 269 261 256 253 237 226 217 180 183 199 201 215 218 217 211 205 212 224 233 240 244 253 265
148 180 209 218 244 266 261 230 132 199 259 291 214 243 240 227 241 270 288 282 270 269 266 256 241 232 229 202 179 199 207 220 223 209 203 204 204 211 217 217 220 232 251 279
184 186 200 194 219 253 230 154 191 224 273 297 279 264 256 260 272 281 278 271 270 271 267 252 240 244 234 197 190 210 223 226 204 192 197 204 205 209 202 197 216 220 223 254
206 199 194 202 221 244 201 211 237 262 283 283 277 275 269 273 277 280 276 269 265 259 258 247 236 246 242 211 200 217 227 199 185 191 203 207 203 203 196 195 207 216 217 232
251 206 217 253 261 264 265 262 267 263 261 271 272 272 268 271 276 277 276 271 265 261 255 246 237 242 246 226 217 222 213 185 183 197 206 203 201 207 206 209 207 208 217 229
234 201 226 255 270 289 279 263 270 278 278 278 277 270 266 270 275 272 273 269 263 262 255 237 233 241 246 233 226 221 200 181 190 200 202 202 202 201 208 218 218 219 219 217
205 206 217 248 251 255 278 284 289 287 287 288 290 289 279 265 269 272 269 264 260 259 253 246 243 244 245 231 228 219 198 186 188 201 205 203 198 198 202 218 251 252 248 258